Tracking 23726 objects as of 22-Sep-2021
HD Live streaming from Space Station
objects crossing your sky now

TIROS 6

Track TIROS 6 now!
10-day predictions
TIROS 6 is classified as:


NORAD ID: 397
Int'l Code: 1962-047A
Perigee: 606.9 km
Apogee: 611.9 km
Inclination: 58.3 °
Period: 96.7 minutes
Semi major axis: 6980 km
RCS: 0.807 m2 (medium)
Launch date: September 18, 1962
Source: United States (US)
Launch site: AIR FORCE EASTERN TEST RANGE (AFETR)
aabbcc
Your satellite tracking list
Your tracking list is empty




NASA's NSSDC Master Catalog

Two Line Element Set (TLE):
1 00397U 62047A   21264.39462991 -.00000016  00000-0  21145-4 0  9991
2 00397  58.3060  58.9412 0003564 342.3684  17.7236 14.88607266154228
Source of the keplerian elements: AFSPC